Location: Newark
(25.0000°N, 73.5000°E)
Time: 22:49:39
(UTC+00:00)

X-37B - Pass Details

Date: 22 June 2021
Orbit: 383 x 392 km, 45.0° (Epoch: 01 July)

Event Time Altitude Azimuth Distance (km) Brightness Sun altitude
Rises 23:19:02 0° 308° (NW) 2,255 4.3 -12.3°
Reaches altitude 10° 23:21:06 10° 306° (NW) 1,401 3.2 -11.9°
Maximum altitude 23:24:15 71° 222° (SW) 408 0.4 -11.3°
Drops below altitude 10° 23:27:23 10° 138° (SE) 1,401 3.5 -10.7°
Sets 23:29:27 0° 136° (SE) 2,254 4.6 -10.3°
